Printer-friendly version

IAU Minor Planet Center

Minor Planet Center

MPEC 2007-M32 : 2007 MK6

The following Minor Planet Electronic Circular may be linked-to from your own Web pages, but must not otherwise be redistributed electronically.


Read MPEC 2007-M31 Read MPEC 2007-M33


M.P.E.C. 2007-M32                                Issued 2007 June 23, 16:10 UT

     The Minor Planet Electronic Circulars contain information on unusual
         minor planets and routine data on comets.  They are published
   on behalf of Commission 20 of the International Astronomical Union by the
          Minor Planet Center, Smithsonian Astrophysical Observatory,
                          Cambridge, MA 02138, U.S.A.

             Prepared using the Tamkin Foundation Computer Network

                              MPC@CFA.HARVARD.EDU
          URL http://www.cfa.harvard.edu/iau/mpc.html  ISSN 1523-6714

                                   2007 MK6

Observations:
     K07M06K* C2007 06 21.19486 13 10 52.96 +31 19 18.9          18.3 V EM032703
     K07M06K  C2007 06 21.20077 13 10 58.65 +31 17 21.9          17.9 V EM032703
     K07M06K  C2007 06 21.20668 13 11 04.34 +31 15 24.7          18.1 V EM032703
     K07M06K  C2007 06 21.21355 13 11 11.04 +31 13 08.6          18.1 V EM032703
     K07M06K  C2007 06 21.21396 13 11 11.36 +31 13 00.0          18.4 V EM032703
     K07M06K  C2007 06 21.21478 13 11 12.19 +31 12 44.5          18.1 V EM032703
     K07M06K  C2007 06 21.24557 13 11 41.85 +31 02 34.3          17.6 V EM032703
     K07M06K  C2007 06 21.25279 13 11 48.66 +31 00 11.0          17.9 V EM032703
     K07M06K  C2007 06 21.26000 13 11 55.64 +30 57 48.4          18.0 V EM032703
     K07M06K  C2007 06 21.26722 13 12 02.55 +30 55 25.7          17.9 V EM032703
     K07M06K  C2007 06 21.30137 13 12 35.31 +30 44 10.9          18.0 V EM032703
     K07M06K  C2007 06 21.30178 13 12 35.67 +30 44 02.7          18.2 V EM032703
     K07M06K  C2007 06 21.30220 13 12 36.10 +30 43 53.7          18.2 V EM032703
     K07M06K  C2007 06 21.30262 13 12 36.39 +30 43 46.2          18.2 V EM032703
     K07M06K  C2007 06 21.85253 13 21 00.40 +27 47 48.4          18.4 V EM032A55
     K07M06K  C2007 06 21.85394 13 21 01.61 +27 47 21.5          18.4 V EM032A55
     K07M06K  C2007 06 21.85534 13 21 02.80 +27 46 55.2          18.5 V EM032A55
     K07M06K  C2007 06 21.85675 13 21 03.95 +27 46 28.1          18.5 V EM032A55
     K07M06K  C2007 06 22.14965 13 25 09.64 +26 15 59.1          18.6 R EM032649
     K07M06K  C2007 06 22.15059 13 25 10.44 +26 15 41.1          19.1 R EM032649
     K07M06K  C2007 06 22.15152 13 25 11.14 +26 15 23.9          19.4 R EM032649
     K07M06K  C2007 06 22.18948 13 25 41.98 +26 03 56.0          18.2 V EM032703
     K07M06K  C2007 06 22.18988 13 25 42.34 +26 03 48.9          19.1 V EM032703
     K07M06K  C2007 06 22.19030 13 25 42.70 +26 03 40.7          18.4 V EM032703
     K07M06K  C2007 06 22.19071 13 25 43.03 +26 03 33.9          18.7 V EM032703
     K07M06K  C2007 06 22.19718 13 25 48.13 +26 01 35.9          18.5 R EM032651
     K07M06K  C2007 06 22.19781 13 25 48.64 +26 01 25.1          18.3 R EM032651
     K07M06K  C2007 06 22.19845 13 25 49.16 +26 01 13.2          18.2 R EM032651
     K07M06K 5C2007 06 22.24196 13 26 23.62 +25 48 01.6          18.4 R EM032673
     K07M06K 5C2007 06 22.24704 13 26 27.84 +25 46 24.4                 EM032673
     K07M06K 5C2007 06 22.25122 13 26 31.11 +25 45 09.0                 EM032673
     K07M06K 5C2007 06 22.25584 13 26 34.68 +25 43 46.0                 EM032673
     K07M06K  C2007 06 23.19174 13 38 01.21 +21 13 45.6          19.5 V EM032703
     K07M06K  C2007 06 23.19227 13 38 01.49 +21 13 38.2          19.9 V EM032703
     K07M06K  C2007 06 23.19279 13 38 01.89 +21 13 29.5          20.0 V EM032703
     K07M06K 5C2007 06 23.27870 13 38 58.24 +20 49 53.6          18.8 R EM032673
     K07M06K 5C2007 06 23.28252 13 39 00.75 +20 48 50.6                 EM032673
     K07M06K 5C2007 06 23.28787 13 39 04.21 +20 47 23.6                 EM032673
     K07M06K 5C2007 06 23.29269 13 39 07.30 +20 46 03.7                 EM032673

Observer details:
649 Powell Observatory, Louisburg.  Observer R. Fredrick.  0.75-m Newtonian
    reflector + CCD.
651 Grasslands Observatory, Tucson.  Observer J. E. McGaha.  0.62-m f/5.1
    Newtonian reflector + CCD.
673 Table Mountain Observatory, Wrightwood.  Observers H. Rhoades, J. Young.
    0.61-m f/16 Cassegrain + CCD.
703 Catalina Sky Survey.  Observers R. E. Hill, A. R. Gibbs, A. Boattini.
    Measurers E. C. Beshore, A. Boattini, G. J. Garradd, A. R. Gibbs,
    A. D. Grauer, R. E. Hill, R. A. Kowalski, S. M. Larson, R. H. McNaught.
    0.68-m Schmidt + CCD.
A55 Osservatorio Astronomico Vallemare di Borbona.  Observer V. S. Casulli.
    0.40-m f/4.5 Newtonian reflector + CCD.

Orbital elements:
2007 MK6                                                 Earth MOID = 0.0902 AU
Epoch 2007 Apr. 10.0 TT = JDT 2454200.5                 MPC
M 337.25397              (2000.0)            P               Q
n   0.84026632     Peri.   25.75750     -0.43081276     -0.78858509
a   1.1122218      Node    92.59741     +0.73331487     -0.58929471
e   0.8268042      Incl.   26.05528     +0.52597497     +0.17568526
P   1.17           H   19.8           G   0.15           U   9
Residuals in seconds of arc
070621 703  0.0   0.2-    070621 703  0.9-  0.1-    070622 651  1.1+  0.2+
070621 703  0.2-  0.1-    070621 A55 (0.7+  1.7+)   070622 651  1.3+  0.0
070621 703  0.4-  0.1-    070621 A55  0.9+  1.4+    070622 673 (1.1-  3.9+)
070621 703  0.6+  0.0     070621 A55  1.0+  1.5+    070622 673 (2.1+  0.7-)
070621 703  0.3-  0.5-    070621 A55  0.4+  1.0+    070622 673 (2.0+  0.0 )
070621 703  0.2+  0.3+    070622 649  0.6-  0.6+    070622 673  1.3+  1.2+
070621 703  0.8+  0.0     070622 649  0.1+  0.1-    070623 703  0.4-  0.3-
070621 703  0.8-  0.4-    070622 649  0.4-  0.3-    070623 703  1.3-  1.0+
070621 703  0.0   0.3-    070622 703  0.3-  0.6-    070623 703  0.5-  0.9+
070621 703  0.2-  0.2-    070622 703  0.3+  0.4-    070623 673  0.1+  0.3-
070621 703  0.6+  0.0     070622 703  0.7+  0.9-    070623 673  0.5+  0.7-
070621 703  0.2+  0.2-    070622 703  0.7+  0.2-    070623 673  0.3+  0.0
070621 703  0.5+  0.9-    070622 651  0.9+  0.5-    070623 673  0.2-  1.0-

Ephemeris:
2007 MK6                 a,e,i = 1.11, 0.83, 26                  q = 0.1926
Date    TT    R. A. (2000) Decl.     Delta      r     Elong.  Phase     V
2007 06 19    12 24.88   +43 52.7    0.143    1.002    80.2    91.7    18.8
2007 06 29    14 20.80   +02 05.9    0.248    1.141   114.4    54.2    19.0
2007 07 09    14 52.85   -11 45.4    0.416    1.265   117.9    45.3    20.1
2007 07 19    15 11.31   -17 44.8    0.599    1.376   114.4    42.3    21.0
2007 07 29    15 26.22   -21 08.6    0.788    1.475   109.1    40.6    21.7

Gareth V. Williams           (C) Copyright 2007 MPC           M.P.E.C. 2007-M32

Read MPEC 2007-M31 Read MPEC 2007-M33


Our Web policy. Index to the CBAT/MPC/ICQ pages.


Valid HTML 4.01!